Location: Krakow
(50.0830°N, 19.9170°E)
Time: 10:20:38
(UTC+02:00)

ACS3 Solar Sail - Pass Details

Date: 29 May 2026
Orbit: 877 x 953 km, 97.2° (Epoch: 8 June)

Event Time Altitude Azimuth Distance (km) Brightness Sun altitude
Rises 03:22:18 0° 2° (N) 3,485 5.7 -9.6°
Reaches altitude 10° 03:25:38 10° 341° (NNW) 2,544 4.5 -9.3°
Maximum altitude 03:28:51 16° 306° (NW) 2,154 3.6 -8.9°
Drops below altitude 10° 03:32:06 10° 271° (W) 2,547 3.6 -8.6°
Enters shadow 03:34:12 - 256° (WSW) 3,105 3.9 -8.4°
